When you browse on this site, cookies collect data to enhance your experience and personalize the content and advertising you see.
Visit our Privacy Policy to learn more. By continuing to use the site, you agree to this use of cookies and data.
  • In Hungary
  • List of Countries
  • For 7 days
  • Water Temperature
  • Satellite Maps
  • Weather Map
  • News
  • Weather Widgets
  • user-avatar
    Login

    Hourly Weather La-Plata

    Today, 20 April, Saturday

    Time Temperature Precipitation Wind Pressure Humidity
    00:00 +20°C° 0 mm 3 mps 756 mmHg 65%
    01:00 +18°C° 0 mm 4 mps 757 mmHg 63%
    02:00 +17°C° 0 mm 4 mps 757 mmHg 53%
    03:00 +15°C° 0 mm 4 mps 757 mmHg 64%
    04:00 +14°C° 0 mm 5 mps 757 mmHg 75%
    05:00 +14°C° 0 mm 5 mps 758 mmHg 86%
    06:00 +14°C° 0 mm 5 mps 759 mmHg 79%
    07:00 +15°C° 0 mm 5 mps 759 mmHg 71%
    08:00 +15°C° 0 mm 5 mps 760 mmHg 63%
    09:00 +17°C° 0 mm 5 mps 760 mmHg 55%
    10:00 +20°C° 0 mm 4 mps 760 mmHg 46%
    11:00 +22°C° 0 mm 4 mps 760 mmHg 37%
    12:00 +24°C° 0 mm 3 mps 760 mmHg 35%
    13:00 +25°C° 0 mm 3 mps 760 mmHg 33%
    14:00 +25°C° 0 mm 3 mps 759 mmHg 32%
    15:00 +24°C° 0 mm 3 mps 759 mmHg 36%
    16:00 +22°C° 0 mm 3 mps 759 mmHg 40%
    17:00 +21°C° 0 mm 3 mps 759 mmHg 44%
    18:00 +19°C° 0 mm 3 mps 760 mmHg 49%
    19:00 +18°C° 0 mm 3 mps 760 mmHg 54%
    20:00 +17°C° 0 mm 3 mps 761 mmHg 60%
    21:00 +16°C° 0 mm 3 mps 761 mmHg 62%
    22:00 +16°C° 0 mm 3 mps 761 mmHg 65%
    23:00 +14°C° 0 mm 3 mps 761 mmHg 68%

    Tomorrow, 21 April, Sunday

    Time Temperature Precipitation Wind Pressure Humidity
    00:00 +13°C° 0 mm 3 mps 761 mmHg 71%
    01:00 +13°C° 0 mm 3 mps 761 mmHg 74%
    02:00 +12°C° 0 mm 4 mps 761 mmHg 77%
    03:00 +12°C° 0 mm 4 mps 761 mmHg 78%
    04:00 +11°C° 0 mm 4 mps 761 mmHg 78%
    05:00 +11°C° 0 mm 4 mps 761 mmHg 79%
    06:00 +11°C° 0 mm 4 mps 762 mmHg 75%
    07:00 +12°C° 0 mm 4 mps 762 mmHg 71%
    08:00 +13°C° 0 mm 4 mps 763 mmHg 67%
    09:00 +15°C° 0 mm 4 mps 763 mmHg 60%
    10:00 +18°C° 0 mm 4 mps 763 mmHg 53%
    11:00 +20°C° 0 mm 4 mps 763 mmHg 45%
    12:00 +21°C° 0 mm 4 mps 762 mmHg 43%
    13:00 +22°C° 0 mm 3 mps 762 mmHg 40%
    14:00 +24°C° 0 mm 3 mps 762 mmHg 37%
    15:00 +22°C° 0 mm 3 mps 762 mmHg 41%
    16:00 +21°C° 0 mm 3 mps 762 mmHg 44%
    17:00 +20°C° 0 mm 3 mps 762 mmHg 48%
    18:00 +19°C° 0 mm 3 mps 762 mmHg 52%
    19:00 +17°C° 0 mm 3 mps 763 mmHg 57%
    20:00 +16°C° 0 mm 3 mps 763 mmHg 61%
    21:00 +16°C° 0 mm 3 mps 763 mmHg 62%
    22:00 +16°C° 0 mm 3 mps 764 mmHg 63%
    23:00 +14°C° 0 mm 3 mps 764 mmHg 64%

    Day after tomorrow, 22 April, Monday

    Time Temperature Precipitation Wind Pressure Humidity
    00:00 +14°C° 0 mm 3 mps 764 mmHg 66%
    01:00 +14°C° 0 mm 3 mps 764 mmHg 68%
    02:00 +13°C° 0 mm 3 mps 764 mmHg 69%
    03:00 +13°C° 0 mm 3 mps 764 mmHg 71%
    04:00 +13°C° 0 mm 3 mps 764 mmHg 73%
    05:00 +12°C° 0 mm 3 mps 763 mmHg 75%
    06:00 +13°C° 0 mm 3 mps 764 mmHg 71%
    07:00 +14°C° 0 mm 3 mps 764 mmHg 66%
    08:00 +16°C° 0 mm 3 mps 765 mmHg 62%
    09:00 +18°C° 0 mm 3 mps 765 mmHg 54%
    10:00 +20°C° 0 mm 3 mps 765 mmHg 46%
    11:00 +22°C° 0 mm 3 mps 765 mmHg 37%
    12:00 +22°C° 0 mm 3 mps 765 mmHg 36%
    13:00 +24°C° 0 mm 3 mps 764 mmHg 35%
    14:00 +24°C° 0 mm 3 mps 764 mmHg 34%
    15:00 +22°C° 0 mm 3 mps 764 mmHg 39%
    16:00 +21°C° 0 mm 4 mps 764 mmHg 44%
    17:00 +20°C° 0 mm 4 mps 763 mmHg 48%
    18:00 +19°C° 0 mm 4 mps 764 mmHg 54%
    19:00 +18°C° 0 mm 4 mps 764 mmHg 60%
    20:00 +17°C° 0 mm 4 mps 765 mmHg 66%
    21:00 +17°C° 0 mm 4 mps 765 mmHg 67%
    22:00 +15°C° 0 mm 4 mps 765 mmHg 68%
    23:00 +15°C° 0 mm 4 mps 766 mmHg 70%

    23 April, Tuesday

    Time Temperature Precipitation Wind Pressure Humidity
    00:00 +16°C° 0 mm 3 mps 766 mmHg 69%
    01:00 +16°C° 0 mm 3 mps 766 mmHg 69%
    02:00 +16°C° 0 mm 3 mps 766 mmHg 69%
    03:00 +14°C° 0 mm 3 mps 766 mmHg 72%
    04:00 +14°C° 0 mm 3 mps 766 mmHg 75%
    05:00 +14°C° 0 mm 3 mps 766 mmHg 78%
    06:00 +16°C° 0 mm 3 mps 766 mmHg 74%
    07:00 +17°C° 0 mm 2 mps 766 mmHg 70%
    08:00 +17°C° 0 mm 2 mps 766 mmHg 66%
    09:00 +19°C° 0 mm 3 mps 766 mmHg 59%
    10:00 +20°C° 0 mm 3 mps 766 mmHg 52%
    11:00 +22°C° 0 mm 4 mps 766 mmHg 45%
    12:00 +22°C° 0 mm 4 mps 765 mmHg 43%
    13:00 +22°C° 0 mm 4 mps 765 mmHg 42%
    14:00 +22°C° 0 mm 4 mps 764 mmHg 40%
    15:00 +21°C° 0 mm 4 mps 764 mmHg 45%
    16:00 +20°C° 0 mm 4 mps 764 mmHg 51%
    17:00 +19°C° 0 mm 4 mps 764 mmHg 56%
    18:00 +18°C° 0 mm 4 mps 764 mmHg 62%
    19:00 +18°C° 0 mm 4 mps 765 mmHg 68%
    20:00 +16°C° 0 mm 5 mps 765 mmHg 75%
    21:00 +16°C° 0 mm 5 mps 765 mmHg 78%
    22:00 +16°C° 0 mm 5 mps 765 mmHg 81%
    23:00 +16°C° 0 mm 5 mps 765 mmHg 84%

    24 April, Wednesday

    Time Temperature Precipitation Wind Pressure Humidity
    00:00 +17°C° 0 mm 4 mps 765 mmHg 83%
    01:00 +17°C° 0 mm 4 mps 765 mmHg 83%
    02:00 +17°C° 0 mm 3 mps 765 mmHg 83%
    03:00 +16°C° 0 mm 3 mps 766 mmHg 83%
    04:00 +16°C° 0 mm 3 mps 766 mmHg 84%
    05:00 +16°C° 0 mm 2 mps 766 mmHg 84%
    06:00 +17°C° 0 mm 3 mps 766 mmHg 80%
    07:00 +18°C° 0 mm 3 mps 766 mmHg 77%
    08:00 +18°C° 0 mm 3 mps 767 mmHg 73%
    09:00 +20°C° 0 mm 3 mps 767 mmHg 65%
    10:00 +22°C° 0 mm 4 mps 767 mmHg 56%
    11:00 +23°C° 0 mm 4 mps 767 mmHg 48%
    12:00 +25°C° 0 mm 5 mps 766 mmHg 47%
    13:00 +24°C° 0 mm 6 mps 765 mmHg 47%
    14:00 +24°C° 0 mm 6 mps 764 mmHg 47%
    15:00 +23°C° 0 mm 6 mps 765 mmHg 50%
    16:00 +22°C° 0 mm 6 mps 765 mmHg 53%
    17:00 +20°C° 0 mm 6 mps 765 mmHg 57%
    18:00 +20°C° 0 mm 6 mps 765 mmHg 60%
    19:00 +19°C° 0 mm 6 mps 766 mmHg 64%
    20:00 +17°C° 0 mm 6 mps 766 mmHg 68%
    21:00 +17°C° 0 mm 6 mps 766 mmHg 70%
    22:00 +17°C° 0 mm 5 mps 766 mmHg 72%
    23:00 +17°C° 0 mm 5 mps 766 mmHg 74%

    25 April, Thursday

    Time Temperature Precipitation Wind Pressure Humidity
    00:00 +17°C° 0 mm 5 mps 766 mmHg 77%
    01:00 +17°C° 0 mm 5 mps 766 mmHg 79%
    02:00 +17°C° 0 mm 5 mps 766 mmHg 82%
    03:00 +17°C° 0 mm 5 mps 766 mmHg 81%
    04:00 +17°C° 0 mm 5 mps 766 mmHg 80%
    05:00 +19°C° 0 mm 5 mps 765 mmHg 79%
    06:00 +19°C° 0.1 mm 5 mps 766 mmHg 79%
    07:00 +20°C° 0.1 mm 5 mps 766 mmHg 78%
    08:00 +20°C° 0.1 mm 5 mps 766 mmHg 78%
    09:00 +21°C° 0 mm 6 mps 766 mmHg 72%
    10:00 +22°C° 0 mm 6 mps 766 mmHg 66%
    11:00 +24°C° 0 mm 7 mps 766 mmHg 60%
    12:00 +23°C° 0 mm 7 mps 765 mmHg 60%
    13:00 +23°C° 0 mm 7 mps 765 mmHg 60%
    14:00 +23°C° 0 mm 7 mps 764 mmHg 60%
    15:00 +22°C° 0 mm 6 mps 764 mmHg 62%
    16:00 +22°C° 0 mm 6 mps 764 mmHg 63%
    17:00 +21°C° 0 mm 6 mps 764 mmHg 64%
    18:00 +21°C° 0 mm 6 mps 764 mmHg 67%
    19:00 +20°C° 0 mm 5 mps 765 mmHg 70%
    20:00 +20°C° 0 mm 5 mps 765 mmHg 74%
    21:00 +20°C° 0 mm 5 mps 765 mmHg 73%
    22:00 +20°C° 0 mm 5 mps 765 mmHg 71%
    23:00 +20°C° 0 mm 6 mps 765 mmHg 70%
    Show more